Regional Weather Roundup
Issued by NWS

Home | Current Version | Previous Version | Graphics & Text | Print | Product List | Glossary On
Versions: 1 2 3 4 5 6 7 8 9 10 11 12 13 14 15 16 17 18 19 20 21 22 23 24 25 26 27 28 29 30 31 32 33 34 35 36 37 38 39 40 41 42 43 44 45 46 47 48 49 50
417
ASUS44 KJAN 250503
RWRMS

MISSISSIPPI HOURLY WEATHER ROUNDUP
NATIONAL WEATHER SERVICE JACKSON MS
1100 PM CST MON NOV 24 2014

NOTE: "FAIR: INDICATES FEW OR NO CLOUDS BELOW 12,000 FEET WITH NO
SIGNIFICANT WEATHER AND/OR OBSTRUCTIONS TO VISIBILITY.

MSZ001>002-007>008-010>013-018>021-025>028-034>036-250600-
NORTHWEST MISSISSIPPI

CITY           SKY/WX    TMP DP  RH WIND       PRES   REMARKS
CLARKSDALE     FAIR      45  36  70 CALM      30.10R
CLEVELAND      FAIR      46  38  75 W5        30.10R
GREENWOOD      CLEAR     37  35  92 CALM      30.11R
GREENVILLE     CLEAR     49  33  54 W7        30.10R
GRENADA        FAIR      36  34  93 CALM      30.10S
OLIVE BRANCH   CLEAR     39  34  81 SW3       30.07R
OXFORD         FAIR      32  32 100 CALM      30.09S
TUNICA         CLEAR     41  34  75 SW6       30.09R
$$

MSZ003>006-009-014>017-022>024-029>033-037>039-250600-
NORTHEAST MISSISSIPPI

CITY           SKY/WX    TMP DP  RH WIND       PRES   REMARKS
COLUMBUS AFB   CLOUDY    43  37  78 CALM      30.10R
CORINTH        FAIR      36  34  93 CALM      30.06R
GOLDN TRIANGLE MOCLDY    45  36  70 CALM      30.09R
STARKVILLE       N/A     43  37  81 CALM      30.10R
TUPELO         CLEAR     40  35  83 CALM      30.08R
$$

MSZ040-058-250600-
CENTRAL MISSISSIPPI

CITY           SKY/WX    TMP DP  RH WIND       PRES   REMARKS
JACKSON INTL   CLOUDY    47  40  76 CALM      30.11R
JACKSON HAWKNS CLOUDY    48  37  65 NW3       30.10S
MERIDIAN KEY   PTCLDY    41  37  86 NW3       30.11R
MERIDIAN NAS   MOCLDY    43  38  82 NW3       30.11R
RAYMOND        FAIR      45  39  81 CALM      30.11S HAZE
VICKSBURG      PTCLDY    37  34  89 CALM      30.12S
$$

MSZ059>079-250600-
SOUTH MISSISSIPPI

CITY           SKY/WX    TMP DP  RH WIND       PRES   REMARKS
BROOKHAVEN     MOCLDY    46  43  87 CALM      30.11S
COLUMBIA       FAIR      43  39  87 MISG        N/A
HATTIESBURG    PTCLDY    50  38  63 N5        30.10R
MCCOMB         MOCLDY    50  36  58 N6        30.09R
NATCHEZ        MOCLDY    48  36  61 CALM      30.12R
PINE BELT      CLEAR     46  34  61 N7        30.10R
$$

MSZ080>082-250600-
COASTAL MISSISSIPPI

CITY           SKY/WX    TMP DP  RH WIND       PRES   REMARKS
BILOXI         CLOUDY    56  39  51 N13       30.04S
PASCAGOULA     CLOUDY    57  41  55 N8        30.05R
GULFPORT       CLOUDY    55  38  52 N10       30.04S
$$



USA.gov is the U.S. government's official web portal to all federal, state and local government web resources and services.